Location: Newark
(39.6889°N, 28.1522°E)
Time: 21:36:52
(UTC+00:00)

XW-2C - Visible Passes

Search period start: 15 December 2019 00:00
Search period end: 25 December 2019 00:00
Orbit: 509 x 528 km, 97.5° (Epoch: 15 December)

Date Brightness Start Highest point End Pass type
(mag) Time Alt. Az. Time Alt. Az. Time Alt. Az.
15 Dec ? 04:06:18 10° NNE 04:10:10 87° E 04:13:59 10° SSW visible
15 Dec ? 16:21:32 10° SW 16:23:44 15° W 16:25:57 10° WNW visible
16 Dec ? 03:52:21 10° NNE 03:56:09 56° E 03:59:53 10° S visible
16 Dec ? 16:06:39 10° SSW 16:09:37 22° W 16:12:37 10° NW visible
17 Dec ? 03:38:31 10° NNE 03:42:06 36° E 03:45:38 10° SSE visible
17 Dec ? 15:52:08 10° SSW 15:55:32 32° W 15:58:59 10° NNW visible
18 Dec ? 03:24:49 10° NE 03:28:02 25° E 03:31:11 10° SSE visible
18 Dec ? 15:37:49 10° S 15:41:28 48° W 15:45:11 10° NNW visible
19 Dec ? 03:11:21 10° NE 03:13:55 17° E 03:16:27 10° SE visible
19 Dec ? 04:44:40 10° N 04:48:04 30° WNW 04:51:26 10° SW visible
19 Dec ? 15:23:40 10° S 15:27:26 76° WSW 15:31:17 10° NNW visible
20 Dec ? 02:58:27 10° ENE 02:59:46 11° E 03:01:06 10° ESE visible
20 Dec ? 04:30:27 10° N 04:34:07 45° WNW 04:37:45 10° SSW visible
21 Dec ? 04:16:19 10° N 04:20:09 69° WNW 04:23:56 10° SSW visible
21 Dec ? 16:32:36 10° WSW 16:33:48 11° W 16:35:02 10° WNW visible
22 Dec ? 04:02:17 10° NNE 04:06:09 77° ESE 04:09:57 10° S visible
22 Dec ? 16:17:11 10° SW 16:19:40 17° W 16:22:11 10° NW visible
23 Dec ? 03:48:22 10° NNE 03:52:07 49° E 03:55:48 10° S visible
23 Dec ? 16:02:26 10° SSW 16:05:33 24° W 16:08:43 10° NW visible
24 Dec ? 03:34:34 10° NNE 03:38:03 32° E 03:41:29 10° SSE visible
24 Dec ? 15:47:58 10° SSW 15:51:29 36° W 15:55:02 10° NNW visible
